Time,TemperatureF,DewpointF,PressureIn,WindDirection,WindDirectionDegrees,WindSpeedMPH,WindSpeedGustMPH,Humidity,HourlyPrecipIn,Conditions,Clouds,dailyrainin,SoftwareType,DateUTC
2013-10-28 00:00:00,27.7,21.4,30.03,SW,222,7.6,10.7,77,0.00,,---,0.00,VWS V14.01,2013-10-28 04:00:00,
2013-10-28 00:05:00,27.7,21.4,30.03,SW,222,7.6,10.7,77,0.00,,---,0.00,VWS V14.01,2013-10-28 04:05:00,
2013-10-28 00:10:00,25.9,19.4,30.03,SW,215,6.7,9.4,76,0.00,,---,0.00,VWS V14.01,2013-10-28 04:10:00,
2013-10-28 00:15:00,28.0,22.1,30.03,SSW,211,7.6,11.2,78,0.00,,---,0.00,VWS V14.01,2013-10-28 04:15:00,
2013-10-28 00:20:00,28.0,22.1,30.03,SW,219,4.9,9.4,78,0.00,,---,0.00,VWS V14.01,2013-10-28 04:20:00,
2013-10-28 00:25:00,27.9,22.2,30.03,SW,214,5.4,9.4,79,0.00,,---,0.00,VWS V14.01,2013-10-28 04:25:00,
2013-10-28 00:30:00,27.3,22.3,30.03,SSW,202,8.1,8.9,81,0.00,,---,0.00,VWS V14.01,2013-10-28 04:30:00,
2013-10-28 00:35:00,27.0,22.2,30.03,SSW,205,6.7,8.5,82,0.00,,---,0.00,VWS V14.01,2013-10-28 04:35:00,
2013-10-28 00:40:00,26.2,20.3,30.03,SW,236,7.6,8.9,78,0.00,,---,0.00,VWS V14.01,2013-10-28 04:40:00,
2013-10-28 00:45:00,27.5,22.5,30.03,SSW,204,4.0,6.7,81,0.00,,---,0.00,VWS V14.01,2013-10-28 04:45:00,
2013-10-28 00:50:00,27.3,21.1,30.06,SW,225,10.3,11.6,77,0.00,,---,0.00,VWS V14.01,2013-10-28 04:50:00,
2013-10-28 00:55:00,28.4,22.4,30.03,SW,218,5.4,9.4,78,0.00,,---,0.00,VWS V14.01,2013-10-28 04:55:00,
2013-10-28 01:00:00,28.6,22.3,30.03,SSW,207,7.6,8.5,77,0.00,,---,0.00,VWS V14.01,2013-10-28 05:00:00,
2013-10-28 01:05:00,28.6,22.6,30.03,SSW,208,7.6,9.8,78,0.00,,---,0.00,VWS V14.01,2013-10-28 05:05:00,
2013-10-28 01:10:00,27.9,21.9,30.03,SSW,197,9.8,10.7,78,0.00,,---,0.00,VWS V14.01,2013-10-28 05:10:00,
2013-10-28 01:15:00,28.6,22.3,30.03,SSW,208,2.7,6.7,77,0.00,,---,0.00,VWS V14.01,2013-10-28 05:15:00,
2013-10-28 01:20:00,28.8,22.2,30.03,SW,215,4.9,6.3,76,0.00,,---,0.00,VWS V14.01,2013-10-28 05:20:00,
2013-10-28 01:25:00,28.9,22.3,30.03,SW,215,5.8,7.6,76,0.00,,---,0.00,VWS V14.01,2013-10-28 05:25:00,
2013-10-28 01:30:00,27.3,22.3,30.03,SSW,202,8.1,8.9,81,0.00,,---,0.00,VWS V14.01,2013-10-28 05:30:00,
2013-10-28 01:35:00,28.8,22.5,30.03,SSW,212,8.5,9.4,77,0.00,,---,0.00,VWS V14.01,2013-10-28 05:35:00,
2013-10-28 01:40:00,28.8,22.5,30.03,SSW,204,8.1,11.2,77,0.00,,---,0.00,VWS V14.01,2013-10-28 05:40:00,
2013-10-28 01:45:00,28.8,22.5,30.03,SSW,209,9.4,13.0,77,0.00,,---,0.00,VWS V14.01,2013-10-28 05:45:00,
2013-10-28 01:50:00,28.0,22.4,30.03,SSW,211,6.7,8.9,79,0.00,,---,0.00,VWS V14.01,2013-10-28 05:50:00,
2013-10-28 01:55:00,28.8,22.2,30.03,SSW,212,9.4,9.8,76,0.00,,---,0.00,VWS V14.01,2013-10-28 05:55:00,
2013-10-28 02:00:00,28.8,22.2,30.03,SW,214,7.6,11.6,76,0.00,,---,0.00,VWS V14.01,2013-10-28 06:00:00,
2013-10-28 02:05:00,28.8,22.2,30.03,SW,214,9.8,11.6,76,0.00,,---,0.00,VWS V14.01,2013-10-28 06:05:00,
2013-10-28 02:10:00,28.6,22.6,30.03,SSW,208,6.7,10.7,78,0.00,,---,0.00,VWS V14.01,2013-10-28 06:10:00,
2013-10-28 02:15:00,28.8,21.9,30.03,SW,215,8.9,12.5,75,0.00,,---,0.00,VWS V14.01,2013-10-28 06:15:00,
2013-10-28 02:20:00,28.9,22.0,30.03,SSW,212,11.2,13.0,75,0.00,,---,0.00,VWS V14.01,2013-10-28 06:20:00,
2013-10-28 02:25:00,29.3,22.1,30.03,SW,216,8.5,13.4,74,0.00,,---,0.00,VWS V14.01,2013-10-28 06:25:00,
2013-10-28 02:30:00,28.8,22.5,30.03,SSW,207,6.7,8.5,77,0.00,,---,0.00,VWS V14.01,2013-10-28 06:30:00,
2013-10-28 02:35:00,29.5,21.9,30.03,SW,216,9.4,12.5,73,0.00,,---,0.00,VWS V14.01,2013-10-28 06:35:00,
2013-10-28 02:40:00,29.5,21.9,30.03,SW,215,9.4,13.9,73,0.00,,---,0.00,VWS V14.01,2013-10-28 06:40:00,
2013-10-28 02:45:00,28.9,21.7,30.03,SW,222,10.7,13.0,74,0.00,,---,0.00,VWS V14.01,2013-10-28 06:45:00,
2013-10-28 02:50:00,28.8,21.5,30.03,SSW,211,11.2,12.5,74,0.00,,---,0.00,VWS V14.01,2013-10-28 06:50:00,
2013-10-28 02:55:00,28.8,22.2,30.03,SSW,212,9.4,9.8,76,0.00,,---,0.00,VWS V14.01,2013-10-28 06:55:00,
2013-10-28 03:00:00,28.8,21.5,30.03,SW,219,10.7,14.8,74,0.00,,---,0.00,VWS V14.01,2013-10-28 07:00:00,
2013-10-28 03:05:00,28.9,21.7,30.03,SW,219,12.5,13.9,74,0.00,,---,0.00,VWS V14.01,2013-10-28 07:05:00,
2013-10-28 03:10:00,28.8,21.5,30.03,SW,222,9.8,12.5,74,0.00,,---,0.00,VWS V14.01,2013-10-28 07:10:00,
2013-10-28 03:15:00,28.8,21.9,30.03,SW,215,8.9,12.5,75,0.00,,---,0.00,VWS V14.01,2013-10-28 07:15:00,
2013-10-28 03:20:00,29.3,21.7,30.03,SW,216,10.7,13.9,73,0.00,,---,0.00,VWS V14.01,2013-10-28 07:20:00,
2013-10-28 03:25:00,29.3,22.1,30.03,SW,216,8.5,13.4,74,0.00,,---,0.00,VWS V14.01,2013-10-28 07:25:00,
2013-10-28 03:30:00,29.3,21.7,30.03,SW,221,13.0,13.9,73,0.00,,---,0.00,VWS V14.01,2013-10-28 07:30:00,
2013-10-28 03:35:00,29.5,21.9,30.03,SW,216,9.4,12.5,73,0.00,,---,0.00,VWS V14.01,2013-10-28 07:35:00,
2013-10-28 03:40:00,29.3,21.7,30.03,SW,215,9.8,13.0,73,0.00,,---,0.00,VWS V14.01,2013-10-28 07:40:00,
2013-10-28 03:45:00,29.3,21.7,30.03,SW,216,7.2,12.1,73,0.00,,---,0.00,VWS V14.01,2013-10-28 07:45:00,
2013-10-28 03:50:00,28.8,21.5,30.03,SSW,211,11.2,12.5,74,0.00,,---,0.00,VWS V14.01,2013-10-28 07:50:00,
2013-10-28 03:55:00,28.9,21.4,30.03,SW,221,7.2,13.0,73,0.00,,---,0.00,VWS V14.01,2013-10-28 07:55:00,
2013-10-28 04:00:00,28.9,21.7,30.03,SW,216,7.2,11.2,74,0.00,,---,0.00,VWS V14.01,2013-10-28 08:00:00,
2013-10-28 04:05:00,28.9,21.7,30.03,SW,219,12.5,13.9,74,0.00,,---,0.00,VWS V14.01,2013-10-28 08:05:00,
2013-10-28 04:10:00,28.6,21.4,30.03,SSW,209,10.3,12.5,74,0.00,,---,0.00,VWS V14.01,2013-10-28 08:10:00,
2013-10-28 04:15:00,28.8,21.5,30.03,SW,219,8.1,11.2,74,0.00,,---,0.00,VWS V14.01,2013-10-28 08:15:00,
2013-10-28 04:20:00,28.9,21.7,30.03,SW,216,7.6,12.5,74,0.00,,---,0.00,VWS V14.01,2013-10-28 08:20:00,
2013-10-28 04:25:00,29.3,21.7,30.03,SW,222,9.8,13.4,73,0.00,,---,0.00,VWS V14.01,2013-10-28 08:25:00,
2013-10-28 04:30:00,28.9,22.0,30.03,SSW,207,8.5,9.8,75,0.00,,---,0.00,VWS V14.01,2013-10-28 08:30:00,
2013-10-28 04:35:00,28.9,22.0,30.03,SSW,211,8.5,11.2,75,0.00,,---,0.00,VWS V14.01,2013-10-28 08:35:00,
2013-10-28 04:40:00,29.1,22.2,30.03,SSW,198,7.2,11.2,75,0.00,,---,0.00,VWS V14.01,2013-10-28 08:40:00,
2013-10-28 04:45:00,29.3,21.7,30.03,SW,216,7.2,12.1,73,0.00,,---,0.00,VWS V14.01,2013-10-28 08:45:00,
2013-10-28 04:50:00,29.3,22.1,30.03,SSW,209,9.8,12.5,74,0.00,,---,0.00,VWS V14.01,2013-10-28 08:50:00,
2013-10-28 04:55:00,28.9,21.4,30.03,SW,221,7.2,13.0,73,0.00,,---,0.00,VWS V14.01,2013-10-28 08:55:00,
2013-10-28 05:00:00,29.8,22.2,30.03,SSW,192,14.8,14.8,73,0.00,,---,0.00,VWS V14.01,2013-10-28 09:00:00,
2013-10-28 05:05:00,28.8,21.5,30.03,SW,216,10.7,12.5,74,0.00,,---,0.00,VWS V14.01,2013-10-28 09:05:00,
2013-10-28 05:10:00,30.0,22.1,30.03,SW,219,12.5,15.2,72,0.00,,---,0.00,VWS V14.01,2013-10-28 09:10:00,
2013-10-28 05:15:00,28.8,21.5,30.03,SW,219,8.1,11.2,74,0.00,,---,0.00,VWS V14.01,2013-10-28 09:15:00,
2013-10-28 05:20:00,30.0,22.4,30.03,SW,218,12.1,15.7,73,0.00,,---,0.00,VWS V14.01,2013-10-28 09:20:00,
2013-10-28 05:25:00,29.8,22.2,30.03,SSW,211,9.8,14.3,73,0.00,,---,0.00,VWS V14.01,2013-10-28 09:25:00,
2013-10-28 05:30:00,30.0,22.4,30.03,SSW,205,10.7,15.7,73,0.00,,---,0.00,VWS V14.01,2013-10-28 09:30:00,
2013-10-28 05:35:00,28.9,22.0,30.03,SSW,211,8.5,11.2,75,0.00,,---,0.00,VWS V14.01,2013-10-28 09:35:00,
2013-10-28 05:40:00,30.0,22.4,30.03,SSW,209,10.3,15.7,73,0.00,,---,0.00,VWS V14.01,2013-10-28 09:40:00,
2013-10-28 05:45:00,30.0,22.4,30.03,SSW,208,12.1,15.2,73,0.00,,---,0.00,VWS V14.01,2013-10-28 09:45:00,
2013-10-28 05:50:00,29.3,22.1,30.03,SSW,209,9.8,12.5,74,0.00,,---,0.00,VWS V14.01,2013-10-28 09:50:00,
2013-10-28 05:55:00,30.0,22.4,30.03,SSW,211,9.8,14.3,73,0.00,,---,0.00,VWS V14.01,2013-10-28 09:55:00,
2013-10-28 06:00:00,30.0,22.4,30.06,SSW,211,11.2,13.9,73,0.00,,---,0.00,VWS V14.01,2013-10-28 10:00:00,
2013-10-28 06:05:00,30.0,22.4,30.06,SSW,208,14.8,17.4,73,0.00,,---,0.00,VWS V14.01,2013-10-28 10:05:00,
2013-10-28 06:10:00,30.0,22.1,30.03,SW,219,12.5,15.2,72,0.00,,---,0.00,VWS V14.01,2013-10-28 10:10:00,
2013-10-28 06:15:00,30.2,22.6,30.06,SW,221,12.1,20.1,73,0.00,,---,0.00,VWS V14.01,2013-10-28 10:15:00,
2013-10-28 06:20:00,30.0,22.4,30.03,SW,218,12.1,15.7,73,0.00,,---,0.00,VWS V14.01,2013-10-28 10:20:00,
2013-10-28 06:25:00,30.2,22.6,30.06,SSW,212,11.6,13.9,73,0.00,,---,0.00,VWS V14.01,2013-10-28 10:25:00,
2013-10-28 06:30:00,30.2,22.3,30.06,SSW,211,14.3,15.7,72,0.00,,---,0.00,VWS V14.01,2013-10-28 10:30:00,
2013-10-28 06:35:00,30.0,22.4,30.03,SSW,197,11.6,14.8,73,0.00,,---,0.00,VWS V14.01,2013-10-28 10:35:00,
2013-10-28 06:40:00,30.4,22.5,30.06,SW,221,10.7,18.3,72,0.00,,---,0.00,VWS V14.01,2013-10-28 10:40:00,
2013-10-28 06:45:00,30.2,22.3,30.06,SSW,207,11.6,15.7,72,0.00,,---,0.00,VWS V14.01,2013-10-28 10:45:00,
2013-10-28 06:55:00,30.4,22.5,30.06,SW,216,11.6,16.1,72,0.00,,---,0.00,VWS V14.01,2013-10-28 10:55:00,
2013-10-28 07:00:00,30.2,22.3,30.06,SSW,212,8.9,13.9,72,0.00,,---,0.00,VWS V14.01,2013-10-28 11:00:00,
2013-10-28 07:05:00,30.0,22.4,30.06,SSW,205,12.1,13.4,73,0.00,,---,0.00,VWS V14.01,2013-10-28 11:05:00,
2013-10-28 07:10:00,29.8,22.2,30.06,SW,218,7.2,12.1,73,0.00,,---,0.00,VWS V14.01,2013-10-28 11:10:00,
2013-10-28 07:15:00,30.2,22.6,30.06,SW,221,12.1,20.1,73,0.00,,---,0.00,VWS V14.01,2013-10-28 11:15:00,
2013-10-28 07:20:00,29.8,22.2,30.06,SW,215,12.1,12.1,73,0.00,,---,0.00,VWS V14.01,2013-10-28 11:20:00,
2013-10-28 07:25:00,30.0,22.4,30.06,SSW,209,9.4,12.1,73,0.00,,---,0.00,VWS V14.01,2013-10-28 11:25:00,
2013-10-28 07:30:00,30.0,22.4,30.06,SSW,202,9.8,14.3,73,0.00,,---,0.00,VWS V14.01,2013-10-28 11:30:00,
2013-10-28 07:35:00,30.4,22.5,30.06,SSW,208,11.2,14.3,72,0.00,,---,0.00,VWS V14.01,2013-10-28 11:35:00,
2013-10-28 07:40:00,29.8,22.2,30.06,SSW,212,10.3,13.0,73,0.00,,---,0.00,VWS V14.01,2013-10-28 11:40:00,
2013-10-28 07:45:00,30.2,22.3,30.06,SSW,207,11.6,15.7,72,0.00,,---,0.00,VWS V14.01,2013-10-28 11:45:00,
2013-10-28 07:50:00,30.2,22.6,30.06,SSW,197,9.4,15.7,73,0.00,,---,0.00,VWS V14.01,2013-10-28 11:50:00,
2013-10-28 07:55:00,30.2,22.9,30.06,SW,218,8.1,12.5,74,0.00,,---,0.00,VWS V14.01,2013-10-28 11:55:00,
2013-10-28 08:00:00,30.2,22.3,30.06,SSW,212,8.9,13.9,72,0.00,,---,0.00,VWS V14.01,2013-10-28 12:00:00,
2013-10-28 08:05:00,30.0,22.8,30.09,SSW,201,8.5,12.1,74,0.00,,---,0.00,VWS V14.01,2013-10-28 12:05:00,
2013-10-28 08:10:00,29.8,22.2,30.06,SW,218,7.2,12.1,73,0.00,,---,0.00,VWS V14.01,2013-10-28 12:10:00,
2013-10-28 08:15:00,29.8,22.6,30.09,SSW,201,5.8,10.7,74,0.00,,---,0.00,VWS V14.01,2013-10-28 12:15:00,
2013-10-28 08:20:00,29.8,23.2,30.09,South,177,4.9,9.4,76,0.00,,---,0.00,VWS V14.01,2013-10-28 12:20:00,
2013-10-28 08:25:00,30.4,23.4,30.09,South,184,4.5,9.8,75,0.00,,---,0.00,VWS V14.01,2013-10-28 12:25:00,
2013-10-28 08:30:00,31.3,23.6,30.09,SSW,200,8.5,8.9,73,0.00,,---,0.00,VWS V14.01,2013-10-28 12:30:00,
2013-10-28 08:35:00,31.6,24.0,30.09,SW,216,2.2,9.8,73,0.00,,---,0.00,VWS V14.01,2013-10-28 12:35:00,
2013-10-28 08:40:00,29.8,22.2,30.06,SSW,212,10.3,13.0,73,0.00,,---,0.00,VWS V14.01,2013-10-28 12:40:00,
2013-10-28 08:45:00,31.8,24.2,30.12,SSE,164,5.4,12.5,73,0.00,,---,0.00,VWS V14.01,2013-10-28 12:45:00,
2013-10-28 08:50:00,32.5,24.9,30.12,South,190,7.6,9.4,73,0.00,,---,0.00,VWS V14.01,2013-10-28 12:50:00,
2013-10-28 08:55:00,30.2,22.9,30.06,SW,218,8.1,12.5,74,0.00,,---,0.00,VWS V14.01,2013-10-28 12:55:00,
2013-10-28 09:00:00,33.6,25.2,30.12,SSW,208,3.6,6.3,71,0.00,,---,0.00,VWS V14.01,2013-10-28 13:00:00,
2013-10-28 09:05:00,33.8,25.4,30.12,South,181,0.0,6.7,71,0.00,,---,0.00,VWS V14.01,2013-10-28 13:05:00,
2013-10-28 09:10:00,30.0,22.8,30.09,South,191,6.7,10.7,74,0.00,,---,0.00,VWS V14.01,2013-10-28 13:10:00,
2013-10-28 09:15:00,34.9,26.5,30.12,SSW,202,1.8,11.2,71,0.00,,---,0.00,VWS V14.01,2013-10-28 13:15:00,
2013-10-28 09:20:00,35.2,26.5,30.12,SW,218,6.7,6.7,70,0.00,,---,0.00,VWS V14.01,2013-10-28 13:20:00,
2013-10-28 09:25:00,35.4,26.6,30.12,West,264,8.5,16.6,70,0.00,,---,0.00,VWS V14.01,2013-10-28 13:25:00,
2013-10-28 09:30:00,36.0,27.1,30.12,West,263,3.6,12.1,70,0.00,,---,0.00,VWS V14.01,2013-10-28 13:30:00,
2013-10-28 09:35:00,31.6,24.0,30.09,SW,216,2.2,9.8,73,0.00,,---,0.00,VWS V14.01,2013-10-28 13:35:00,
2013-10-28 09:40:00,31.6,24.0,30.09,South,188,6.3,8.5,73,0.00,,---,0.00,VWS V14.01,2013-10-28 13:40:00,
2013-10-28 09:45:00,36.3,27.5,30.12,WNW,288,12.5,13.4,70,0.00,,---,0.00,VWS V14.01,2013-10-28 13:45:00,
2013-10-28 09:50:00,32.5,24.9,30.12,South,190,7.6,9.4,73,0.00,,---,0.00,VWS V14.01,2013-10-28 13:50:00,
2013-10-28 09:55:00,35.8,27.3,30.12,WNW,287,6.7,18.8,71,0.00,,---,0.00,VWS V14.01,2013-10-28 13:55:00,
2013-10-28 10:00:00,36.1,27.7,30.12,West,270,5.4,14.8,71,0.00,,---,0.00,VWS V14.01,2013-10-28 14:00:00,
2013-10-28 10:05:00,36.9,28.0,30.12,WSW,253,4.0,13.4,70,0.00,,---,0.00,VWS V14.01,2013-10-28 14:05:00,
2013-10-28 10:10:00,37.9,29.0,30.12,NW,321,15.7,15.7,70,0.00,,---,0.00,VWS V14.01,2013-10-28 14:10:00,
2013-10-28 10:15:00,37.8,28.9,30.12,NW,307,14.3,19.2,70,0.00,,---,0.00,VWS V14.01,2013-10-28 14:15:00,
2013-10-28 10:20:00,35.2,26.5,30.12,SW,218,6.7,6.7,70,0.00,,---,0.00,VWS V14.01,2013-10-28 14:20:00,
2013-10-28 10:25:00,37.2,28.4,30.12,WNW,285,12.1,16.1,70,0.00,,---,0.00,VWS V14.01,2013-10-28 14:25:00,
2013-10-28 10:30:00,36.0,27.1,30.12,West,263,3.6,12.1,70,0.00,,---,0.00,VWS V14.01,2013-10-28 14:30:00,
2013-10-28 10:35:00,37.4,28.5,30.15,NW,307,7.6,15.2,70,0.00,,---,0.00,VWS V14.01,2013-10-28 14:35:00,
2013-10-28 10:40:00,37.2,28.7,30.15,WNW,297,3.1,14.3,71,0.00,,---,0.00,VWS V14.01,2013-10-28 14:40:00,
2013-10-28 10:45:00,36.7,28.2,30.15,NNW,338,9.4,22.8,71,0.00,,---,0.00,VWS V14.01,2013-10-28 14:45:00,
2013-10-28 10:50:00,36.7,28.2,30.15,NW,314,13.9,17.0,71,0.00,,---,0.00,VWS V14.01,2013-10-28 14:50:00,
2013-10-28 10:55:00,35.8,27.3,30.12,WNW,287,6.7,18.8,71,0.00,,---,0.00,VWS V14.01,2013-10-28 14:55:00,
2013-10-28 11:00:00,37.0,28.9,30.15,WNW,288,13.9,15.2,72,0.00,,---,0.00,VWS V14.01,2013-10-28 15:00:00,
2013-10-28 11:05:00,37.0,28.2,30.15,North,356,12.5,17.9,70,0.00,,---,0.00,VWS V14.01,2013-10-28 15:05:00,
2013-10-28 11:10:00,36.5,28.0,30.15,NNW,328,12.5,14.8,71,0.00,,---,0.00,VWS V14.01,2013-10-28 15:10:00,
2013-10-28 11:15:00,36.9,28.4,30.15,NW,304,13.0,14.8,71,0.00,,---,0.00,VWS V14.01,2013-10-28 15:15:00,
2013-10-28 11:20:00,37.2,28.4,30.12,WNW,300,12.1,17.4,70,0.00,,---,0.00,VWS V14.01,2013-10-28 15:20:00,
2013-10-28 11:25:00,36.7,28.2,30.15,NNW,345,6.7,15.2,71,0.00,,---,0.00,VWS V14.01,2013-10-28 15:25:00,
2013-10-28 11:30:00,36.7,28.2,30.15,NW,326,5.4,16.6,71,0.00,,---,0.00,VWS V14.01,2013-10-28 15:30:00,
2013-10-28 11:35:00,37.4,28.5,30.15,NW,307,7.6,15.2,70,0.00,,---,0.00,VWS V14.01,2013-10-28 15:35:00,
2013-10-28 11:40:00,39.0,30.1,30.15,North,360,9.4,15.2,70,0.00,,---,0.00,VWS V14.01,2013-10-28 15:40:00,
2013-10-28 11:45:00,38.1,29.2,30.15,NW,305,5.8,15.2,70,0.00,,---,0.00,VWS V14.01,2013-10-28 15:45:00,
2013-10-28 11:50:00,36.7,28.2,30.15,NW,314,13.9,17.0,71,0.00,,---,0.00,VWS V14.01,2013-10-28 15:50:00,
2013-10-28 11:55:00,37.9,29.0,30.15,NNW,332,13.0,19.7,70,0.00,,---,0.00,VWS V14.01,2013-10-28 15:55:00,
2013-10-28 12:00:00,37.0,27.8,30.18,NW,307,8.5,17.0,69,0.00,,---,0.00,VWS V14.01,2013-10-28 16:00:00,
2013-10-28 12:05:00,37.0,28.2,30.15,North,356,12.5,17.9,70,0.00,,---,0.00,VWS V14.01,2013-10-28 16:05:00,
2013-10-28 12:10:00,36.9,27.7,30.18,NW,307,10.7,20.1,69,0.00,,---,0.00,VWS V14.01,2013-10-28 16:10:00,
2013-10-28 12:15:00,36.9,28.0,30.18,WNW,283,9.8,16.6,70,0.00,,---,0.00,VWS V14.01,2013-10-28 16:15:00,
2013-10-28 12:20:00,38.3,28.0,30.18,NW,307,12.1,19.2,66,0.00,,---,0.00,VWS V14.01,2013-10-28 16:20:00,
2013-10-28 12:25:00,39.6,29.1,30.18,WNW,298,15.2,18.3,66,0.00,,---,0.00,VWS V14.01,2013-10-28 16:25:00,
2013-10-28 12:30:00,36.7,28.2,30.15,NW,326,5.4,16.6,71,0.00,,---,0.00,VWS V14.01,2013-10-28 16:30:00,
2013-10-28 12:35:00,38.3,28.0,30.18,WNW,300,10.7,21.5,66,0.00,,---,0.00,VWS V14.01,2013-10-28 16:35:00,
2013-10-28 12:40:00,36.9,27.7,30.18,NW,321,15.7,19.2,69,0.00,,---,0.00,VWS V14.01,2013-10-28 16:40:00,
2013-10-28 12:45:00,38.1,29.2,30.15,NW,305,5.8,15.2,70,0.00,,---,0.00,VWS V14.01,2013-10-28 16:45:00,
2013-10-28 12:50:00,37.8,28.5,30.18,NW,318,12.1,17.0,69,0.00,,---,0.00,VWS V14.01,2013-10-28 16:50:00,
2013-10-28 12:55:00,38.7,28.3,30.18,NW,304,14.8,16.6,66,0.00,,---,0.00,VWS V14.01,2013-10-28 16:55:00,
2013-10-28 13:00:00,39.4,29.0,30.18,NNW,329,8.5,17.0,66,0.00,,---,0.00,VWS V14.01,2013-10-28 17:00:00,
2013-10-28 13:05:00,37.2,28.0,30.18,North,354,12.5,17.4,69,0.00,,---,0.00,VWS V14.01,2013-10-28 17:05:00,
2013-10-28 13:10:00,37.9,26.9,30.18,NW,304,9.8,19.7,64,0.00,,---,0.00,VWS V14.01,2013-10-28 17:10:00,
2013-10-28 13:15:00,38.7,27.5,30.18,WNW,295,6.3,15.7,64,0.00,,---,0.00,VWS V14.01,2013-10-28 17:15:00,
2013-10-28 13:20:00,38.3,28.0,30.18,NW,307,12.1,19.2,66,0.00,,---,0.00,VWS V14.01,2013-10-28 17:20:00,
2013-10-28 13:25:00,41.0,28.6,30.18,NW,316,8.5,17.9,61,0.00,,---,0.00,VWS V14.01,2013-10-28 17:25:00,
2013-10-28 13:30:00,37.4,25.6,30.18,NNW,332,8.9,18.3,62,0.00,,---,0.00,VWS V14.01,2013-10-28 17:30:00,
2013-10-28 13:35:00,38.3,28.0,30.18,WNW,300,10.7,21.5,66,0.00,,---,0.00,VWS V14.01,2013-10-28 17:35:00,
2013-10-28 13:40:00,35.8,24.8,30.18,WNW,295,6.3,16.6,64,0.00,,---,0.00,VWS V14.01,2013-10-28 17:40:00,
2013-10-28 13:45:00,35.4,24.5,30.18,NNW,332,7.2,16.6,64,0.00,,---,0.00,VWS V14.01,2013-10-28 17:45:00,
2013-10-28 13:50:00,37.6,28.4,30.18,NNW,345,8.9,13.0,69,0.00,,---,0.00,VWS V14.01,2013-10-28 17:50:00,
2013-10-28 13:55:00,39.6,27.2,30.18,NNW,338,10.7,13.4,61,0.00,,---,0.00,VWS V14.01,2013-10-28 17:55:00,
2013-10-28 14:00:00,37.9,26.1,30.18,NW,323,8.5,16.6,62,0.00,,---,0.00,VWS V14.01,2013-10-28 18:00:00,
2013-10-28 14:05:00,39.6,27.2,30.18,WNW,292,8.1,18.3,61,0.00,,---,0.00,VWS V14.01,2013-10-28 18:05:00,
2013-10-28 14:10:00,39.6,27.2,30.18,NW,321,9.4,20.6,61,0.00,,---,0.00,VWS V14.01,2013-10-28 18:10:00,
2013-10-28 14:15:00,38.7,27.5,30.18,WNW,295,6.3,15.7,64,0.00,,---,0.00,VWS V14.01,2013-10-28 18:15:00,
2013-10-28 14:20:00,38.1,27.0,30.18,NW,314,13.4,17.9,64,0.00,,---,0.00,VWS V14.01,2013-10-28 18:20:00,
2013-10-28 14:25:00,37.9,26.9,30.18,NNW,342,8.5,17.4,64,0.00,,---,0.00,VWS V14.01,2013-10-28 18:25:00,
2013-10-28 14:30:00,36.9,25.1,30.18,NW,311,11.6,15.2,62,0.00,,---,0.00,VWS V14.01,2013-10-28 18:30:00,
2013-10-28 14:35:00,36.3,24.6,30.18,NW,319,13.0,16.1,62,0.00,,---,0.00,VWS V14.01,2013-10-28 18:35:00,
2013-10-28 14:40:00,36.3,25.3,30.18,NW,309,11.2,16.1,64,0.00,,---,0.00,VWS V14.01,2013-10-28 18:40:00,
2013-10-28 14:45:00,35.4,24.5,30.18,NNW,332,7.2,16.6,64,0.00,,---,0.00,VWS V14.01,2013-10-28 18:45:00,
2013-10-28 14:50:00,36.3,24.6,30.18,NW,319,8.5,14.8,62,0.00,,---,0.00,VWS V14.01,2013-10-28 18:50:00,
2013-10-28 14:55:00,36.0,24.2,30.18,NW,322,6.3,11.6,62,0.00,,---,0.00,VWS V14.01,2013-10-28 18:55:00,
2013-10-28 15:00:00,37.9,26.1,30.18,NW,323,8.5,16.6,62,0.00,,---,0.00,VWS V14.01,2013-10-28 19:00:00,
2013-10-28 15:05:00,36.3,24.6,30.21,NNW,339,10.3,18.8,62,0.00,,---,0.00,VWS V14.01,2013-10-28 19:05:00,
2013-10-28 15:10:00,36.0,25.0,30.21,NNW,338,8.9,16.1,64,0.00,,---,0.00,VWS V14.01,2013-10-28 19:10:00,
2013-10-28 15:15:00,36.1,24.4,30.21,NW,304,14.3,17.9,62,0.00,,---,0.00,VWS V14.01,2013-10-28 19:15:00,
2013-10-28 15:20:00,38.1,27.0,30.18,NW,314,13.4,17.9,64,0.00,,---,0.00,VWS V14.01,2013-10-28 19:20:00,
2013-10-28 15:25:00,37.9,26.1,30.21,North,350,8.9,15.7,62,0.00,,---,0.00,VWS V14.01,2013-10-28 19:25:00,
2013-10-28 15:30:00,38.1,26.3,30.21,NW,314,14.3,16.6,62,0.00,,---,0.00,VWS V14.01,2013-10-28 19:30:00,
2013-10-28 15:35:00,36.3,25.3,30.18,North,357,8.9,15.7,64,0.00,,---,0.00,VWS V14.01,2013-10-28 19:35:00,
2013-10-28 15:40:00,38.1,25.1,30.21,NW,318,9.8,17.4,59,0.00,,---,0.00,VWS V14.01,2013-10-28 19:40:00,
2013-10-28 15:45:00,36.7,23.7,30.21,NNW,335,14.8,20.6,59,0.00,,---,0.00,VWS V14.01,2013-10-28 19:45:00,
2013-10-28 15:50:00,35.1,22.2,30.21,NNW,338,5.4,15.2,59,0.00,,---,0.00,VWS V14.01,2013-10-28 19:50:00,
2013-10-28 15:55:00,36.0,24.2,30.18,NW,322,6.3,11.6,62,0.00,,---,0.00,VWS V14.01,2013-10-28 19:55:00,
2013-10-28 16:00:00,36.3,23.4,30.21,NNW,338,9.4,10.7,59,0.00,,---,0.00,VWS V14.01,2013-10-28 20:00:00,
2013-10-28 16:05:00,37.2,24.2,30.21,NNW,346,8.5,14.8,59,0.00,,---,0.00,VWS V14.01,2013-10-28 20:05:00,
2013-10-28 16:10:00,36.9,23.9,30.21,North,1,8.1,15.7,59,0.00,,---,0.00,VWS V14.01,2013-10-28 20:10:00,
2013-10-28 16:15:00,36.5,23.5,30.21,NW,318,9.4,13.0,59,0.00,,---,0.00,VWS V14.01,2013-10-28 20:15:00,
2013-10-28 16:20:00,35.4,22.5,30.21,NNW,340,8.5,14.8,59,0.00,,---,0.00,VWS V14.01,2013-10-28 20:20:00,
2013-10-28 16:25:00,37.9,26.1,30.21,North,350,8.9,15.7,62,0.00,,---,0.00,VWS V14.01,2013-10-28 20:25:00,
2013-10-28 16:30:00,34.0,22.4,30.24,North,349,3.6,13.9,62,0.00,,---,0.00,VWS V14.01,2013-10-28 20:30:00,
2013-10-28 16:35:00,34.3,22.7,30.24,NW,314,5.8,10.3,62,0.00,,---,0.00,VWS V14.01,2013-10-28 20:35:00,
2013-10-28 16:40:00,38.1,25.1,30.21,NW,318,9.8,17.4,59,0.00,,---,0.00,VWS V14.01,2013-10-28 20:40:00,
2013-10-28 16:45:00,34.3,21.9,30.24,WNW,292,8.9,13.0,60,0.00,,---,0.00,VWS V14.01,2013-10-28 20:45:00,
2013-10-28 16:50:00,34.3,22.7,30.24,NNW,343,6.3,14.3,62,0.00,,---,0.00,VWS V14.01,2013-10-28 20:50:00,
2013-10-28 16:55:00,34.2,22.5,30.24,NNW,329,8.1,9.8,62,0.00,,---,0.00,VWS V14.01,2013-10-28 20:55:00,
2013-10-28 17:00:00,36.3,23.4,30.21,NNW,338,9.4,10.7,59,0.00,,---,0.00,VWS V14.01,2013-10-28 21:00:00,
2013-10-28 17:05:00,33.1,21.5,30.24,North,356,4.5,13.0,62,0.00,,---,0.00,VWS V14.01,2013-10-28 21:05:00,
2013-10-28 17:10:00,32.9,21.3,30.24,North,2,4.9,9.4,62,0.00,,---,0.00,VWS V14.01,2013-10-28 21:10:00,
2013-10-28 17:15:00,36.5,23.5,30.21,NW,318,9.4,13.0,59,0.00,,---,0.00,VWS V14.01,2013-10-28 21:15:00,
2013-10-28 17:20:00,31.3,20.2,30.24,North,356,4.0,11.2,63,0.00,,---,0.00,VWS V14.01,2013-10-28 21:20:00,
2013-10-28 17:25:00,30.7,19.6,30.24,NNW,340,6.7,9.8,63,0.00,,---,0.00,VWS V14.01,2013-10-28 21:25:00,
2013-10-28 17:30:00,30.4,19.3,30.24,North,359,9.8,9.8,63,0.00,,---,0.00,VWS V14.01,2013-10-28 21:30:00,
2013-10-28 17:35:00,34.3,22.7,30.24,NW,314,5.8,10.3,62,0.00,,---,0.00,VWS V14.01,2013-10-28 21:35:00,
2013-10-28 17:40:00,30.0,20.0,30.24,North,359,5.8,11.2,66,0.00,,---,0.00,VWS V14.01,2013-10-28 21:40:00,
2013-10-28 17:45:00,34.3,21.9,30.24,WNW,292,8.9,13.0,60,0.00,,---,0.00,VWS V14.01,2013-10-28 21:45:00,
2013-10-28 17:50:00,28.9,20.1,30.24,North,350,6.3,10.7,69,0.00,,---,0.00,VWS V14.01,2013-10-28 21:50:00,
2013-10-28 17:55:00,28.9,20.1,30.24,NNW,346,8.9,10.7,69,0.00,,---,0.00,VWS V14.01,2013-10-28 21:55:00,
2013-10-28 18:00:00,33.6,22.0,30.24,NNE,14,4.5,9.8,62,0.00,,---,0.00,VWS V14.01,2013-10-28 22:00:00,
2013-10-28 18:05:00,28.0,19.9,30.27,North,354,5.8,9.4,71,0.00,,---,0.00,VWS V14.01,2013-10-28 22:05:00,
2013-10-28 18:10:00,27.5,19.4,30.27,North,359,8.1,10.7,71,0.00,,---,0.00,VWS V14.01,2013-10-28 22:10:00,
2013-10-28 18:15:00,27.1,19.3,30.27,North,359,5.4,8.9,72,0.00,,---,0.00,VWS V14.01,2013-10-28 22:15:00,
2013-10-28 18:20:00,31.3,20.2,30.24,North,356,4.0,11.2,63,0.00,,---,0.00,VWS V14.01,2013-10-28 22:20:00,
2013-10-28 18:25:00,27.0,18.8,30.27,North,359,5.4,8.9,71,0.00,,---,0.00,VWS V14.01,2013-10-28 22:25:00,
2013-10-28 18:30:00,30.4,19.3,30.24,North,359,9.8,9.8,63,0.00,,---,0.00,VWS V14.01,2013-10-28 22:30:00,
2013-10-28 18:35:00,26.4,18.6,30.27,NNW,330,6.7,8.5,72,0.00,,---,0.00,VWS V14.01,2013-10-28 22:35:00,
2013-10-28 18:40:00,26.2,18.5,30.27,NW,316,6.3,8.1,72,0.00,,---,0.00,VWS V14.01,2013-10-28 22:40:00,
2013-10-28 18:45:00,26.1,18.3,30.27,NW,323,8.1,9.8,72,0.00,,---,0.00,VWS V14.01,2013-10-28 22:45:00,
2013-10-28 18:50:00,28.9,20.1,30.24,North,350,6.3,10.7,69,0.00,,---,0.00,VWS V14.01,2013-10-28 22:50:00,
2013-10-28 18:55:00,25.7,17.9,30.27,North,360,5.4,10.7,72,0.00,,---,0.00,VWS V14.01,2013-10-28 22:55:00,
2013-10-28 19:00:00,25.5,18.1,30.27,North,4,6.7,8.5,73,0.00,,---,0.00,VWS V14.01,2013-10-28 23:00:00,
2013-10-28 19:05:00,25.2,17.7,30.27,North,2,3.1,7.2,73,0.00,,---,0.00,VWS V14.01,2013-10-28 23:05:00,
2013-10-28 19:10:00,27.5,19.4,30.27,North,359,8.1,10.7,71,0.00,,---,0.00,VWS V14.01,2013-10-28 23:10:00,
2013-10-28 19:15:00,24.1,17.0,30.27,North,359,4.0,7.2,74,0.00,,---,0.00,VWS V14.01,2013-10-28 23:15:00,
2013-10-28 19:20:00,23.4,16.6,30.27,NNW,343,4.9,5.4,75,0.00,,---,0.00,VWS V14.01,2013-10-28 23:20:00,
2013-10-28 19:25:00,27.0,18.8,30.27,North,359,5.4,8.9,71,0.00,,---,0.00,VWS V14.01,2013-10-28 23:25:00,
2013-10-28 19:30:00,22.8,16.7,30.27,NNW,345,4.9,6.7,77,0.00,,---,0.00,VWS V14.01,2013-10-28 23:30:00,
2013-10-28 19:35:00,22.6,16.5,30.27,NNW,346,3.6,5.4,77,0.00,,---,0.00,VWS V14.01,2013-10-28 23:35:00,
2013-10-28 19:40:00,26.2,18.5,30.27,NW,316,6.3,8.1,72,0.00,,---,0.00,VWS V14.01,2013-10-28 23:40:00,
2013-10-28 19:45:00,22.3,16.5,30.30,NNW,346,4.5,6.7,78,0.00,,---,0.00,VWS V14.01,2013-10-28 23:45:00,
2013-10-28 19:50:00,22.3,16.2,30.30,NNW,340,2.7,4.5,77,0.00,,---,0.00,VWS V14.01,2013-10-28 23:50:00,
2013-10-28 19:55:00,21.9,15.8,30.30,NNW,347,2.7,3.6,77,0.00,,---,0.00,VWS V14.01,2013-10-28 23:55:00,
2013-10-28 20:00:00,25.5,18.1,30.27,North,4,6.7,8.5,73,0.00,,---,0.00,VWS V14.01,2013-10-29 00:00:00,
2013-10-28 20:05:00,20.3,16.0,30.30,NNW,347,0.0,0.0,83,0.00,,---,0.00,VWS V14.01,2013-10-29 00:05:00,
2013-10-28 20:10:00,24.4,17.4,30.27,North,1,5.4,7.2,74,0.00,,---,0.00,VWS V14.01,2013-10-29 00:10:00,
2013-10-28 20:15:00,19.6,15.8,30.30,NNW,346,0.0,0.0,85,0.00,,---,0.00,VWS V14.01,2013-10-29 00:15:00,
2013-10-28 20:20:00,19.4,15.6,30.30,NNW,347,0.0,0.4,85,0.00,,---,0.00,VWS V14.01,2013-10-29 00:20:00,
2013-10-28 20:25:00,23.0,16.6,30.27,NNW,345,4.0,4.9,76,0.00,,---,0.00,VWS V14.01,2013-10-29 00:25:00,
2013-10-28 20:30:00,19.0,15.3,30.30,NNW,347,1.3,1.8,85,0.00,,---,0.00,VWS V14.01,2013-10-29 00:30:00,
2013-10-28 20:35:00,22.6,16.5,30.27,NNW,346,3.6,5.4,77,0.00,,---,0.00,VWS V14.01,2013-10-29 00:35:00,
2013-10-28 20:40:00,19.0,15.6,30.30,NNW,346,2.2,2.7,86,0.00,,---,0.00,VWS V14.01,2013-10-29 00:40:00,
2013-10-28 20:45:00,22.3,16.5,30.30,NNW,346,4.5,6.7,78,0.00,,---,0.00,VWS V14.01,2013-10-29 00:45:00,
2013-10-28 20:50:00,18.7,14.9,30.30,NNW,347,0.0,1.8,85,0.00,,---,0.00,VWS V14.01,2013-10-29 00:50:00,
2013-10-28 20:55:00,17.6,13.9,30.30,NNW,346,0.0,0.4,85,0.00,,---,0.00,VWS V14.01,2013-10-29 00:55:00,
2013-10-28 21:00:00,21.0,15.5,30.30,NNW,347,0.0,3.1,79,0.00,,---,0.00,VWS V14.01,2013-10-29 01:00:00,
2013-10-28 21:05:00,17.4,14.7,30.30,NNW,347,1.8,1.8,89,0.00,,---,0.00,VWS V14.01,2013-10-29 01:05:00,
2013-10-28 21:10:00,17.8,15.6,30.30,NNW,347,0.0,1.8,91,0.00,,---,0.00,VWS V14.01,2013-10-29 01:10:00,
2013-10-28 21:15:00,17.8,15.4,30.30,NNW,347,1.3,1.3,90,0.00,,---,0.00,VWS V14.01,2013-10-29 01:15:00,
2013-10-28 21:20:00,19.4,15.6,30.30,NNW,347,0.0,0.4,85,0.00,,---,0.00,VWS V14.01,2013-10-29 01:20:00,
2013-10-28 21:25:00,18.1,15.2,30.30,NNW,346,1.3,2.2,88,0.00,,---,0.00,VWS V14.01,2013-10-29 01:25:00,
2013-10-28 21:30:00,18.0,14.8,30.30,NNW,347,1.8,2.7,87,0.00,,---,0.00,VWS V14.01,2013-10-29 01:30:00,
2013-10-28 21:35:00,18.0,14.5,30.30,NNW,343,1.8,3.1,86,0.00,,---,0.00,VWS V14.01,2013-10-29 01:35:00,
2013-10-28 21:40:00,17.4,14.2,30.30,NNW,347,0.9,1.8,87,0.00,,---,0.00,VWS V14.01,2013-10-29 01:40:00,
2013-10-28 21:45:00,19.0,15.6,30.30,NNW,347,1.3,2.7,86,0.00,,---,0.00,VWS V14.01,2013-10-29 01:45:00,
2013-10-28 21:50:00,15.8,13.1,30.33,NNW,347,0.0,0.0,89,0.00,,---,0.00,VWS V14.01,2013-10-29 01:50:00,
2013-10-28 21:55:00,16.0,14.3,30.33,NNW,346,0.0,0.4,93,0.00,,---,0.00,VWS V14.01,2013-10-29 01:55:00,
2013-10-28 22:00:00,17.4,14.2,30.30,NNW,346,1.3,2.2,87,0.00,,---,0.00,VWS V14.01,2013-10-29 02:00:00,
2013-10-28 22:05:00,15.8,14.4,30.33,NNW,345,0.0,0.0,94,0.00,,---,0.00,VWS V14.01,2013-10-29 02:05:00,
2013-10-28 22:10:00,16.0,14.6,30.33,NNW,347,0.0,1.8,94,0.00,,---,0.00,VWS V14.01,2013-10-29 02:10:00,
2013-10-28 22:15:00,17.8,15.4,30.30,NNW,347,1.3,1.3,90,0.00,,---,0.00,VWS V14.01,2013-10-29 02:15:00,
2013-10-28 22:20:00,15.4,14.0,30.33,NNW,347,0.0,0.4,94,0.00,,---,0.00,VWS V14.01,2013-10-29 02:20:00,
2013-10-28 22:25:00,15.1,13.7,30.33,NNW,346,0.0,0.0,94,0.00,,---,0.00,VWS V14.01,2013-10-29 02:25:00,
2013-10-28 22:30:00,15.1,13.7,30.33,NNW,347,1.8,3.1,94,0.00,,---,0.00,VWS V14.01,2013-10-29 02:30:00,
2013-10-28 22:35:00,15.3,13.9,30.33,NNW,347,2.2,3.6,94,0.00,,---,0.00,VWS V14.01,2013-10-29 02:35:00,
2013-10-28 22:40:00,17.4,14.2,30.30,NNW,347,0.9,1.8,87,0.00,,---,0.00,VWS V14.01,2013-10-29 02:40:00,
2013-10-28 22:45:00,15.1,13.4,30.33,NNW,346,0.0,0.0,93,0.00,,---,0.00,VWS V14.01,2013-10-29 02:45:00,
2013-10-28 22:50:00,14.7,13.1,30.33,NNW,347,0.0,0.0,93,0.00,,---,0.00,VWS V14.01,2013-10-29 02:50:00,
2013-10-28 22:55:00,14.5,13.1,30.33,NNW,347,0.0,0.0,94,0.00,,---,0.00,VWS V14.01,2013-10-29 02:55:00,
2013-10-28 23:00:00,15.8,14.1,30.33,NNW,346,0.0,0.0,93,0.00,,---,0.00,VWS V14.01,2013-10-29 03:00:00,
2013-10-28 23:05:00,14.4,13.4,30.33,NNW,346,0.0,0.0,96,0.00,,---,0.00,VWS V14.01,2013-10-29 03:05:00,
2013-10-28 23:10:00,14.0,13.3,30.33,NNW,347,0.0,0.0,97,0.00,,---,0.00,VWS V14.01,2013-10-29 03:10:00,
2013-10-28 23:15:00,14.0,13.5,30.33,NNW,347,0.0,0.0,98,0.00,,---,0.00,VWS V14.01,2013-10-29 03:15:00,
2013-10-28 23:20:00,14.2,13.9,30.33,NNW,346,0.0,0.0,99,0.00,,---,0.00,VWS V14.01,2013-10-29 03:20:00,
2013-10-28 23:25:00,15.1,13.7,30.33,NNW,346,0.0,0.0,94,0.00,,---,0.00,VWS V14.01,2013-10-29 03:25:00,
2013-10-28 23:30:00,14.0,14.0,30.33,NNW,347,0.0,0.0,100,0.00,,---,0.00,VWS V14.01,2013-10-29 03:30:00,
2013-10-28 23:35:00,15.3,13.9,30.33,NNW,347,2.2,3.6,94,0.00,,---,0.00,VWS V14.01,2013-10-29 03:35:00,
2013-10-28 23:40:00,14.2,14.2,30.33,NNW,347,0.0,0.0,100,0.00,,---,0.00,VWS V14.01,2013-10-29 03:40:00,
2013-10-28 23:45:00,14.2,14.2,30.33,NNW,346,2.7,2.7,100,0.00,,---,0.00,VWS V14.01,2013-10-29 03:45:00,
2013-10-28 23:50:00,14.7,13.1,30.33,NNW,347,0.0,0.0,93,0.00,,---,0.00,VWS V14.01,2013-10-29 03:50:00,
2013-10-28 23:55:00,14.4,14.4,30.33,NNW,346,1.8,2.7,100,0.00,,---,0.00,VWS V14.01,2013-10-29 03:55:00,